Flag for Netherlands Weather past 2 weeks in Nijmegen, Netherlands

Now
61 °F

Fog.


Feels Like: 61 °F
Forecast: 47 / 60 °F
Wind: 5 mph from Northwest

Location: Volkel

Current Time: Sep 21, 2014 at 8:12:39 AM

Latest Report: Sep 21, 2014 at 7:25 AM


Visibility: 4 mi

Pressure: 29.98 "Hg

Humidity: 94%

Dew point: 59 °F

Location of NijmegenLocation

Historic Weather in Nijmegen — Graph

°F

Nijmegen temperature yesterday

Maximum temperature yesterday: 75 °F (at 3:25 PM)
Minimum temperature yesterday: 57 °F (at 1:55 AM)
Average temperature yesterday: 63 °F

Past Weeks' High & Low Weather Summary

 TemperatureHumidityPressure
High77 °F (Sep 17, 3:25 PM)100% (Sep 6, 7:25 AM)30.27 "Hg (Sep 6, 7:25 AM)
Low46 °F (Sep 12, 5:55 AM)46% (Sep 8, 4:55 PM)29.80 "Hg (Sep 18, 3:55 PM)
Average61 °F86%30.02 "Hg
* Reported Sep 6 7:25 AM — Sep 21 7:04 AM, Nijmegen, Weather by CustomWeather, © 2014

Note: Actual official high and low records may vary slightly from our data, if they occured in-between our weather recording intervals... More about our weather records

Advertising

Nijmegen weather history for previous 24 hours

 ConditionsComfort  
Time TempWeatherWind HumidityBarometerVisibility
7:04 AM
Sep 21
61 °FFog.3 mph94%29.98 "Hg3 mi
6:56 AM61 °FFog.5 mph94%29.98 "Hg3 mi
6:25 AM61 °FFog.3 mph94%29.98 "Hg2 mi
5:55 AM61 °FFog.2 mph94%29.98 "Hg2 mi
5:25 AM61 °FFog.3 mph94%29.98 "Hg2 mi
4:55 AM61 °FFog.3 mph94%29.98 "Hg2 mi
4:25 AM61 °FFog.3 mph94%29.98 "Hg2 mi
3:55 AM61 °FFog.3 mph94%29.98 "Hg2 mi
3:25 AM59 °FFog.3 mph100%29.98 "Hg1 mi
2:56 AM61 °FFog.3 mph100%29.98 "Hg2 mi
2:25 AM61 °FFog.3 mph100%29.98 "Hg2 mi
1:55 AM61 °FFog.3 mph100%29.98 "Hg2 mi
1:25 AM63 °FFog.2 mph94%29.98 "Hg2 mi
12:55 AM63 °FFog.2 mph94%29.98 "Hg2 mi
12:25 AM63 °FFog.2 mph94%29.98 "Hg2 mi
11:56 PM
Sep 20
63 °FFog.2 mph94%29.98 "Hg2 mi
11:55 PM63 °FFog.2 mph94%29.98 "Hg2 mi
11:25 PM64 °FFog.5 mph94%29.98 "Hg2 mi
10:55 PM64 °FFog.5 mph94%29.98 "Hg2 mi
10:25 PM64 °FFog.1 mph94%29.98 "Hg2 mi
9:55 PM64 °FFog.3 mph94%29.98 "Hg2 mi
9:25 PM64 °FFog.5 mph94%29.98 "Hg2 mi
9:00 PM64 °FFog.5 mph94%29.95 "Hg2 mi
8:56 PM64 °FFog.3 mph94%29.95 "Hg2 mi
8:25 PM63 °FFog.1 mph100%29.95 "Hg3 mi
8:04 PM64 °FFog.2 mph94%29.95 "Hg3 mi
7:55 PM64 °FFog.2 mph88%29.95 "Hg1 mi
3:25 PM75 °FThunderstorms. Haze.10 mph69%29.92 "Hg3 mi
2:55 PM73 °FBroken clouds.10 mph78%29.92 "Hg3 mi
2:25 PM73 °FFog.6 mph78%29.92 "Hg3 mi
1:55 PM72 °FFog.8 mph83%29.95 "Hg3 mi
1:25 PM72 °FFog.6 mph83%29.95 "Hg2 mi
12:55 PM72 °FBroken clouds.3 mph78%29.95 "Hg3 mi
12:25 PM72 °FPartly sunny.2 mph78%29.95 "Hg3 mi
12:00 PM70 °FOvercast.2 mph78%29.95 "Hg5 mi
11:55 AM72 °FPartly sunny.2 mph78%29.95 "Hg4 mi
11:25 AM70 °FFog.No wind78%29.95 "Hg3 mi
10:55 AM70 °FFog.1 mph83%29.92 "Hg3 mi
10:25 AM66 °FFog.1 mph94%29.92 "Hg3 mi
10:00 AM63 °FFog.2 mph100%29.92 "Hg3 mi
9:25 AM61 °FFog.1 mph100%29.92 "Hg2 mi
9:03 AM61 °FFog.1 mph94%29.92 "Hg2 mi
8:55 AM59 °FFog.2 mph100%29.92 "Hg1 mi
8:25 AM59 °FFog.1 mph100%29.92 "Hg1 mi
Weather by CustomWeather, © 2014

See weather overviewHow to use our weather pages